User: anonymous   Login
Location: Oshawa
(43.9000°N, 78.8670°W)
Time: 03:46:53
(UTC-04:00)
Language:

Cosmos 1500 - Orbit

View from above orbital plane
View from above orbital plane
View from above satellite
View from above satellite

Ground track
Ground track

The orbit data is extracted from the following two-line orbital elements,

1 14372U 83099A   15146.82909559  .00001978  00000-0  10477-3 0  9997
2 14372 082.5173 005.8077 0016951 172.1703 317.8680 15.14735574723787
Epoch (UTC): 26 May 2015 19:53:53
Eccentricity: 0.0016951
inclination: 82.5173°
perigee height: 510 km
apogee height: 533 km
right ascension of ascending node: 5.8077°
argument of perigee: 172.1703°
revolutions per day: 15.14735574
mean anomaly at epoch: 317.8680°
orbit number at epoch: 72378

The dashed part of the orbit path shows where the satellite is in the earth's shadow,  

DLR